Darstellungsparameter: Aktuell verwendete Einstellungen:
Skalierung der Graphiken ... ?
xyx+y,   Skalierungsfaktor:      Skalierung: Modus: x, Faktor: 1
Darstellungszeitraum ... ?
Vom - - bis: - -   Zeitraum: 18.08.2014 - 18.08.2014
Min/Max/Avg-Anzeige ... ?
Zeige MMA aktuell
Zeige MMA Monat
Zeige MMA alles
Zeige --A aktuell
Zeige --A Monat
Zeige --A alles
Keine MMA-Anzeige
MMA:
Average (ber die Originaldaten)
MMA-Basis: 23.02.2003 - 19.08.2019
Quicknavigation für Darstellung... ?
Tage:      1T, 2T, 3T, 5T -1T -2T -3T -5T +1T +2T +3T +5T
Wochen: 1W, 2W, 3W -1W -2W -3W +1W +2W +3W
Monate: 1M, 3M, 6M -1M -3M -6M +1M +3M +6M
Jahre:    1J, 3J, 5J, 10J -1J -3J -5J -10J +1J +3J +5J +10J
Nutze für die Darstellung ... ?
Originaldaten oder Mittelwerte auf ...
Stundenbasis Tagesbasis Wochenbasis
Monatsbasis Jahresbasis      Datenbasis: Original-Daten
Darstellen als:
Statistik (Auto) Statistik J:M      Darstellung:
Zur Graphik,    zurück zur Übersicht aller Sensoren.
 
Tabellarische Datenbersicht: ?
 
Sensor: Nr:Datum:Temp:Feuchte:Taupunkt:
Aussen-T/F 1 18-08-2014 00:00:00 17.1 C 69 % 11.37 C
2 18-08-2014 00:05:00 17.1 C 69 % 11.37 C
3 18-08-2014 00:10:00 17.1 C 68 % 11.15 C
4 18-08-2014 00:15:00 17.1 C 69 % 11.37 C
5 18-08-2014 00:20:00 17.1 C 70 % 11.59 C
6 18-08-2014 00:25:00 17 C 69 % 11.28 C
7 18-08-2014 00:30:00 17 C 70 % 11.49 C
8 18-08-2014 00:35:00 17 C 69 % 11.28 C
9 18-08-2014 00:40:00 17.1 C 69 % 11.37 C
10 18-08-2014 00:45:00 17.1 C 69 % 11.37 C
11 18-08-2014 00:50:00 17 C 69 % 11.28 C
12 18-08-2014 00:55:00 16.9 C 69 % 11.18 C
13 18-08-2014 01:00:00 16.9 C 69 % 11.18 C
14 18-08-2014 01:05:00 16.9 C 70 % 11.4 C
15 18-08-2014 01:10:00 16.8 C 69 % 11.09 C
16 18-08-2014 01:15:00 16.8 C 70 % 11.3 C
17 18-08-2014 01:20:00 16.8 C 70 % 11.3 C
18 18-08-2014 01:25:00 16.7 C 70 % 11.21 C
19 18-08-2014 01:30:00 16.7 C 70 % 11.21 C
20 18-08-2014 01:35:00 16.6 C 70 % 11.11 C
21 18-08-2014 01:40:00 16.6 C 71 % 11.32 C
22 18-08-2014 01:45:00 16.5 C 71 % 11.23 C
23 18-08-2014 01:50:00 16.4 C 71 % 11.13 C
24 18-08-2014 01:55:00 16.4 C 71 % 11.13 C
25 18-08-2014 02:00:00 16.4 C 71 % 11.13 C
Sensor: Nr:Datum:Temp:Feuchte:Taupunkt:
Aussen-T/F 26 18-08-2014 02:05:00 16.4 C 71 % 11.13 C
27 18-08-2014 02:10:00 16.3 C 71 % 11.04 C
28 18-08-2014 02:15:00 16.3 C 71 % 11.04 C
29 18-08-2014 02:20:00 16.3 C 71 % 11.04 C
30 18-08-2014 02:25:00 16.3 C 72 % 11.25 C
31 18-08-2014 02:30:00 16.2 C 72 % 11.15 C
32 18-08-2014 02:35:00 16.2 C 72 % 11.15 C
33 18-08-2014 02:40:00 16.1 C 72 % 11.06 C
34 18-08-2014 02:45:00 16.1 C 72 % 11.06 C
35 18-08-2014 02:50:00 16 C 72 % 10.96 C
36 18-08-2014 02:55:00 16 C 72 % 10.96 C
37 18-08-2014 03:00:00 16 C 73 % 11.17 C
38 18-08-2014 03:05:00 15.9 C 73 % 11.07 C
39 18-08-2014 03:10:00 15.9 C 73 % 11.07 C
40 18-08-2014 03:15:00 15.9 C 73 % 11.07 C
41 18-08-2014 03:20:00 16 C 73 % 11.17 C
42 18-08-2014 03:25:00 16 C 73 % 11.17 C
43 18-08-2014 03:30:00 16 C 73 % 11.17 C
44 18-08-2014 03:35:00 16 C 73 % 11.17 C
45 18-08-2014 03:40:00 16 C 73 % 11.17 C
46 18-08-2014 03:45:00 15.9 C 73 % 11.07 C
47 18-08-2014 03:50:00 15.9 C 74 % 11.28 C
48 18-08-2014 03:55:00 15.9 C 74 % 11.28 C
49 18-08-2014 04:00:00 15.9 C 74 % 11.28 C
50 18-08-2014 04:05:00 15.9 C 74 % 11.28 C
Sensor: Nr:Datum:Temp:Feuchte:Taupunkt:
Aussen-T/F 51 18-08-2014 04:10:00 15.9 C 74 % 11.28 C
52 18-08-2014 04:15:00 15.9 C 74 % 11.28 C
53 18-08-2014 04:20:00 15.8 C 74 % 11.18 C
54 18-08-2014 04:25:00 15.8 C 75 % 11.38 C
55 18-08-2014 04:30:00 15.7 C 75 % 11.28 C
56 18-08-2014 04:35:00 15.7 C 76 % 11.48 C
57 18-08-2014 04:40:00 15.7 C 76 % 11.48 C
58 18-08-2014 04:45:00 15.5 C 77 % 11.49 C
59 18-08-2014 04:50:00 15.4 C 78 % 11.59 C
60 18-08-2014 04:55:00 15.3 C 79 % 11.68 C
61 18-08-2014 05:00:00 15.2 C 79 % 11.59 C
62 18-08-2014 05:05:00 15.1 C 80 % 11.68 C
63 18-08-2014 05:10:00 15.1 C 80 % 11.68 C
64 18-08-2014 05:15:00 15.1 C 80 % 11.68 C
65 18-08-2014 05:20:00 15.1 C 80 % 11.68 C
66 18-08-2014 05:25:00 15.1 C 80 % 11.68 C
67 18-08-2014 05:30:00 15.1 C 80 % 11.68 C
68 18-08-2014 05:35:00 15 C 81 % 11.77 C
69 18-08-2014 05:40:00 15 C 81 % 11.77 C
70 18-08-2014 05:45:00 15 C 81 % 11.77 C
71 18-08-2014 05:50:00 15 C 81 % 11.77 C
72 18-08-2014 05:55:00 15 C 81 % 11.77 C
73 18-08-2014 06:00:00 15 C 80 % 11.58 C
74 18-08-2014 06:05:00 15 C 80 % 11.58 C
75 18-08-2014 06:10:00 15 C 80 % 11.58 C
Sensor: Nr:Datum:Temp:Feuchte:Taupunkt:
Aussen-T/F 76 18-08-2014 06:15:00 15 C 80 % 11.58 C
77 18-08-2014 06:20:00 15 C 81 % 11.77 C
78 18-08-2014 06:25:00 15 C 81 % 11.77 C
79 18-08-2014 06:30:00 14.9 C 81 % 11.67 C
80 18-08-2014 06:35:00 14.9 C 81 % 11.67 C
81 18-08-2014 06:40:00 14.9 C 81 % 11.67 C
82 18-08-2014 06:45:00 14.9 C 81 % 11.67 C
83 18-08-2014 06:50:00 14.9 C 81 % 11.67 C
84 18-08-2014 06:55:00 14.9 C 81 % 11.67 C
85 18-08-2014 07:00:00 14.9 C 81 % 11.67 C
86 18-08-2014 07:05:00 14.9 C 81 % 11.67 C
87 18-08-2014 07:10:00 14.9 C 81 % 11.67 C
88 18-08-2014 07:15:00 14.9 C 81 % 11.67 C
89 18-08-2014 07:20:00 14.9 C 81 % 11.67 C
90 18-08-2014 07:25:00 14.9 C 81 % 11.67 C
91 18-08-2014 07:30:00 15 C 81 % 11.77 C
92 18-08-2014 07:35:00 15 C 81 % 11.77 C
93 18-08-2014 07:40:00 15 C 81 % 11.77 C
94 18-08-2014 07:45:00 15 C 82 % 11.95 C
95 18-08-2014 07:50:00 15 C 82 % 11.95 C
96 18-08-2014 07:55:00 15 C 82 % 11.95 C
97 18-08-2014 08:00:00 14.9 C 82 % 11.86 C
98 18-08-2014 08:05:00 14.9 C 83 % 12.04 C
99 18-08-2014 08:10:00 14.9 C 84 % 12.22 C
100 18-08-2014 08:15:00 14.8 C 84 % 12.12 C
Sensor: Nr:Datum:Temp:Feuchte:Taupunkt:
Aussen-T/F 101 18-08-2014 08:20:00 14.7 C 85 % 12.21 C
102 18-08-2014 08:25:00 14.3 C 85 % 11.81 C
103 18-08-2014 08:30:00 14.1 C 87 % 11.97 C
104 18-08-2014 08:35:00 13.8 C 89 % 12.02 C
105 18-08-2014 08:40:00 13.6 C 90 % 11.99 C
106 18-08-2014 08:45:00 13.6 C 91 % 12.16 C
107 18-08-2014 08:50:00 13.6 C 91 % 12.16 C
108 18-08-2014 08:55:00 13.6 C 91 % 12.16 C
109 18-08-2014 09:00:00 13.6 C 90 % 11.99 C
110 18-08-2014 09:05:00 13.7 C 91 % 12.26 C
111 18-08-2014 09:10:00 13.7 C 91 % 12.26 C
112 18-08-2014 09:15:00 13.7 C 91 % 12.26 C
113 18-08-2014 09:20:00 13.6 C 91 % 12.16 C
114 18-08-2014 09:25:00 13.5 C 92 % 12.23 C
115 18-08-2014 09:30:00 13.6 C 93 % 12.49 C
116 18-08-2014 09:35:00 13.6 C 93 % 12.49 C
117 18-08-2014 09:40:00 13.7 C 93 % 12.59 C
118 18-08-2014 09:45:00 13.7 C 93 % 12.59 C
119 18-08-2014 09:50:00 13.7 C 93 % 12.59 C
120 18-08-2014 09:55:00 13.7 C 93 % 12.59 C
121 18-08-2014 10:00:00 13.8 C 92 % 12.52 C
122 18-08-2014 10:05:00 13.8 C 92 % 12.52 C
123 18-08-2014 10:10:00 13.9 C 92 % 12.62 C
124 18-08-2014 10:15:00 14 C 92 % 12.72 C
125 18-08-2014 10:20:00 14.2 C 92 % 12.92 C
Sensor: Nr:Datum:Temp:Feuchte:Taupunkt:
Aussen-T/F 126 18-08-2014 10:25:00 14.2 C 91 % 12.75 C
127 18-08-2014 10:30:00 14.3 C 90 % 12.68 C
128 18-08-2014 10:35:00 14.3 C 90 % 12.68 C
129 18-08-2014 10:40:00 14.4 C 90 % 12.78 C
130 18-08-2014 10:45:00 14.6 C 90 % 12.98 C
131 18-08-2014 10:50:00 14.8 C 90 % 13.18 C
132 18-08-2014 10:55:00 14.9 C 90 % 13.28 C
133 18-08-2014 11:00:00 15 C 89 % 13.2 C
134 18-08-2014 11:05:00 15.1 C 87 % 12.95 C
135 18-08-2014 11:10:00 15.3 C 87 % 13.15 C
136 18-08-2014 11:15:00 15.6 C 87 % 13.45 C
137 18-08-2014 11:20:00 15.8 C 86 % 13.46 C
138 18-08-2014 11:25:00 16 C 85 % 13.48 C
139 18-08-2014 11:30:00 16.1 C 82 % 13.03 C
140 18-08-2014 11:35:00 16.2 C 84 % 13.5 C
141 18-08-2014 11:40:00 16.2 C 85 % 13.68 C
142 18-08-2014 11:45:00 16.1 C 84 % 13.4 C
143 18-08-2014 11:50:00 16.2 C 84 % 13.5 C
144 18-08-2014 11:55:00 16.5 C 84 % 13.79 C
145 18-08-2014 12:00:00 16.5 C 84 % 13.79 C
146 18-08-2014 12:05:00 16.8 C 80 % 13.33 C
147 18-08-2014 12:10:00 16.7 C 78 % 12.85 C
148 18-08-2014 12:15:00 16.7 C 79 % 13.04 C
149 18-08-2014 12:20:00 16.8 C 77 % 12.75 C
150 18-08-2014 12:25:00 17 C 76 % 12.74 C
Sensor: Nr:Datum:Temp:Feuchte:Taupunkt:
Aussen-T/F 151 18-08-2014 12:30:00 17.3 C 75 % 12.83 C
152 18-08-2014 12:35:00 17.4 C 73 % 12.51 C
153 18-08-2014 12:40:00 17.6 C 73 % 12.71 C
154 18-08-2014 12:45:00 17.6 C 72 % 12.5 C
155 18-08-2014 12:50:00 17.8 C 66 % 11.37 C
156 18-08-2014 12:55:00 17.9 C 68 % 11.91 C
157 18-08-2014 13:00:00 18 C 70 % 12.45 C
158 18-08-2014 13:05:00 18.2 C 71 % 12.86 C
159 18-08-2014 13:10:00 18.7 C 70 % 13.12 C
160 18-08-2014 13:15:00 18.8 C 65 % 12.09 C
161 18-08-2014 13:20:00 18.7 C 66 % 12.22 C
162 18-08-2014 13:25:00 18.2 C 69 % 12.42 C
163 18-08-2014 13:30:00 17.8 C 68 % 11.82 C
164 18-08-2014 13:35:00 17.6 C 70 % 12.07 C
165 18-08-2014 13:40:00 16.8 C 71 % 11.52 C
166 18-08-2014 13:45:00 15.8 C 75 % 11.38 C
167 18-08-2014 13:50:00 15.3 C 79 % 11.68 C
168 18-08-2014 13:55:00 14.9 C 80 % 11.48 C
169 18-08-2014 14:00:00 14.8 C 81 % 11.57 C
170 18-08-2014 14:05:00 15.1 C 80 % 11.68 C
171 18-08-2014 14:10:00 15.7 C 82 % 12.64 C
172 18-08-2014 14:15:00 15.8 C 82 % 12.74 C
173 18-08-2014 14:20:00 15.9 C 78 % 12.07 C
174 18-08-2014 14:25:00 16.3 C 79 % 12.65 C
175 18-08-2014 14:30:00 16.6 C 76 % 12.36 C
Sensor: Nr:Datum:Temp:Feuchte:Taupunkt:
Aussen-T/F 176 18-08-2014 14:35:00 16.9 C 77 % 12.84 C
177 18-08-2014 14:40:00 17.3 C 74 % 12.62 C
178 18-08-2014 14:45:00 17.8 C 73 % 12.9 C
179 18-08-2014 14:50:00 18 C 70 % 12.45 C
180 18-08-2014 14:55:00 17.9 C 68 % 11.91 C
181 18-08-2014 15:00:00 17.7 C 69 % 11.95 C
182 18-08-2014 15:05:00 17.3 C 70 % 11.78 C
183 18-08-2014 15:10:00 17.1 C 71 % 11.8 C
184 18-08-2014 15:15:00 16.8 C 73 % 11.94 C
185 18-08-2014 15:20:00 16.9 C 74 % 12.24 C
186 18-08-2014 15:25:00 17.2 C 76 % 12.94 C
187 18-08-2014 15:30:00 17.5 C 73 % 12.61 C
188 18-08-2014 15:35:00 17.7 C 77 % 13.62 C
189 18-08-2014 15:40:00 17.8 C 72 % 12.69 C
190 18-08-2014 15:45:00 18.1 C 78 % 14.21 C
191 18-08-2014 15:50:00 18.1 C 76 % 13.81 C
192 18-08-2014 15:55:00 18 C 72 % 12.88 C
193 18-08-2014 16:00:00 18.2 C 71 % 12.86 C
194 18-08-2014 16:05:00 18.4 C 69 % 12.61 C
195 18-08-2014 16:10:00 19 C 68 % 12.96 C
196 18-08-2014 16:15:00 19.2 C 65 % 12.47 C
197 18-08-2014 16:20:00 18.9 C 66 % 12.41 C
198 18-08-2014 16:25:00 19.2 C 65 % 12.47 C
199 18-08-2014 16:30:00 19.8 C 58 % 11.3 C
200 18-08-2014 16:35:00 20.3 C 62 % 12.79 C
Sensor: Nr:Datum:Temp:Feuchte:Taupunkt:
Aussen-T/F 201 18-08-2014 16:40:00 20 C 56 % 10.96 C
202 18-08-2014 16:45:00 19.6 C 61 % 11.88 C
203 18-08-2014 16:50:00 19.8 C 54 % 10.23 C
204 18-08-2014 16:55:00 20.4 C 52 % 10.22 C
205 18-08-2014 17:00:00 20.5 C 47 % 8.81 C
206 18-08-2014 17:05:00 20.4 C 48 % 9.03 C
207 18-08-2014 17:10:00 20.7 C 45 % 8.35 C
208 18-08-2014 17:15:00 20.9 C 45 % 8.53 C
209 18-08-2014 17:20:00 21.1 C 46 % 9.04 C
210 18-08-2014 17:25:00 20.8 C 42 % 7.43 C
211 18-08-2014 17:30:00 20.9 C 44 % 8.2 C
212 18-08-2014 17:35:00 20.7 C 45 % 8.35 C
213 18-08-2014 17:40:00 20.6 C 45 % 8.26 C
214 18-08-2014 17:45:00 20.4 C 46 % 8.4 C
215 18-08-2014 17:50:00 20.1 C 48 % 8.76 C
216 18-08-2014 17:55:00 20 C 48 % 8.67 C
217 18-08-2014 18:00:00 20.4 C 49 % 9.34 C
218 18-08-2014 18:05:00 20.4 C 46 % 8.4 C
219 18-08-2014 18:10:00 19.9 C 46 % 7.95 C
220 18-08-2014 18:15:00 19.9 C 52 % 9.76 C
221 18-08-2014 18:20:00 19.1 C 54 % 9.58 C
222 18-08-2014 18:25:00 18.8 C 55 % 9.58 C
223 18-08-2014 18:30:00 18.7 C 58 % 10.28 C
224 18-08-2014 18:35:00 18.8 C 58 % 10.37 C
225 18-08-2014 18:40:00 19.2 C 55 % 9.95 C
Sensor: Nr:Datum:Temp:Feuchte:Taupunkt:
Aussen-T/F 226 18-08-2014 18:45:00 19.5 C 55 % 10.23 C
227 18-08-2014 18:50:00 19.7 C 54 % 10.14 C
228 18-08-2014 18:55:00 19.9 C 55 % 10.6 C
229 18-08-2014 19:00:00 19.9 C 52 % 9.76 C
230 18-08-2014 19:05:00 19.5 C 51 % 9.1 C
231 18-08-2014 19:10:00 19.3 C 52 % 9.21 C
232 18-08-2014 19:15:00 18.8 C 54 % 9.3 C
233 18-08-2014 19:20:00 18.6 C 58 % 10.18 C
234 18-08-2014 19:25:00 18.4 C 56 % 9.47 C
235 18-08-2014 19:30:00 18.3 C 55 % 9.11 C
236 18-08-2014 19:35:00 18.3 C 56 % 9.38 C
237 18-08-2014 19:40:00 18.3 C 56 % 9.38 C
238 18-08-2014 19:45:00 18.2 C 56 % 9.29 C
239 18-08-2014 19:50:00 18.2 C 57 % 9.55 C
240 18-08-2014 19:55:00 18.3 C 56 % 9.38 C
241 18-08-2014 20:00:00 18.3 C 56 % 9.38 C
242 18-08-2014 20:05:00 18.2 C 57 % 9.55 C
243 18-08-2014 20:10:00 18 C 62 % 10.62 C
244 18-08-2014 20:15:00 17.8 C 62 % 10.43 C
245 18-08-2014 20:20:00 17.6 C 64 % 10.72 C
246 18-08-2014 20:25:00 17.2 C 64 % 10.34 C
247 18-08-2014 20:30:00 17 C 67 % 10.83 C
248 18-08-2014 20:35:00 16.7 C 67 % 10.55 C
249 18-08-2014 20:40:00 16.3 C 73 % 11.46 C
250 18-08-2014 20:45:00 16 C 76 % 11.77 C
Sensor: Nr:Datum:Temp:Feuchte:Taupunkt:
Aussen-T/F 251 18-08-2014 20:50:00 15.7 C 78 % 11.88 C
252 18-08-2014 20:55:00 15.6 C 80 % 12.16 C
253 18-08-2014 21:00:00 15.3 C 80 % 11.87 C
254 18-08-2014 21:05:00 15.2 C 80 % 11.78 C
255 18-08-2014 21:10:00 15.1 C 80 % 11.68 C
256 18-08-2014 21:15:00 14.9 C 80 % 11.48 C
257 18-08-2014 21:20:00 14.8 C 80 % 11.39 C
258 18-08-2014 21:25:00 14.7 C 82 % 11.66 C
259 18-08-2014 21:30:00 14.6 C 83 % 11.75 C
260 18-08-2014 21:35:00 14.5 C 84 % 11.83 C
261 18-08-2014 21:40:00 14.5 C 85 % 12.01 C
262 18-08-2014 21:45:00 14.6 C 86 % 12.29 C
263 18-08-2014 21:50:00 14.5 C 85 % 12.01 C
264 18-08-2014 21:55:00 14.5 C 85 % 12.01 C
265 18-08-2014 22:00:00 14.4 C 84 % 11.73 C
266 18-08-2014 22:05:00 14.3 C 84 % 11.64 C
267 18-08-2014 22:10:00 14.3 C 84 % 11.64 C
268 18-08-2014 22:15:00 14.3 C 84 % 11.64 C
269 18-08-2014 22:20:00 14.3 C 85 % 11.81 C
270 18-08-2014 22:25:00 14.2 C 86 % 11.89 C
271 18-08-2014 22:30:00 14.1 C 84 % 11.44 C
272 18-08-2014 22:35:00 14.1 C 84 % 11.44 C
273 18-08-2014 22:40:00 14.1 C 84 % 11.44 C
274 18-08-2014 22:45:00 14.2 C 85 % 11.72 C
275 18-08-2014 22:50:00 14.2 C 85 % 11.72 C
Sensor: Nr:Datum:Temp:Feuchte:Taupunkt:
Aussen-T/F 276 18-08-2014 22:55:00 14.2 C 86 % 11.89 C
277 18-08-2014 23:00:00 14.2 C 85 % 11.72 C
278 18-08-2014 23:05:00 14.2 C 85 % 11.72 C
279 18-08-2014 23:10:00 14.1 C 84 % 11.44 C
280 18-08-2014 23:15:00 14 C 86 % 11.7 C
281 18-08-2014 23:20:00 13.9 C 85 % 11.42 C
282 18-08-2014 23:25:00 13.8 C 85 % 11.32 C
283 18-08-2014 23:30:00 13.8 C 85 % 11.32 C
284 18-08-2014 23:35:00 13.8 C 86 % 11.5 C
285 18-08-2014 23:40:00 13.8 C 86 % 11.5 C
286 18-08-2014 23:45:00 13.8 C 85 % 11.32 C
287 18-08-2014 23:50:00 13.8 C 85 % 11.32 C
288 18-08-2014 23:55:00 13.9 C 87 % 11.77 C

Legende:
   Min
   Max


Maximal/Minimal-Werte vom 23.02.2003 - 19.08.2019

Sensor Min Max Avg
Temp
(Aussen-T/F)
-16.4 °C
20-12-2009  01:30:01
40.4 °C
25-07-2019  16:20:00
11.22 °C
Feuchte
(Aussen-T/F)
18 %
17-07-2015  15:55:00
100 %
07-10-2012  03:05:00
76.99 %

Die Daten stammen von einer Davis Vantage Pro 2 Wetter-Station und werden unter Linux mit der Software wview2wettercgi und aufbereitet. Alle Angaben erfolgen ohne Gewähr für ihre Vollständigkeit oder Richtigkeit.
Kontakt: Rainer Krienke krienke@uni-koblenz.de . Meine Webseiten an der Uni Koblenz oder privat.
Version: $Revision: 0.78 $